User: anonymous   Login
Location: Unspecified
(0.0000°N, 0.0000°E)
Time: 04:58:52
(UTC+00:00)
Language:

AUBIESAT-1 - Orbit

View from above orbital plane
View from above orbital plane
View from above satellite
View from above satellite

Ground track
Ground track

The orbit data is extracted from the following two-line orbital elements,

1 37854U 11061E   15123.50118510  .00008502  00000-0  50428-3 0  9996
2 37854 101.7237 315.8462 0193158 201.1642 213.8843 14.97485981190535
Epoch (UTC): 03 May 2015 12:01:42
Eccentricity: 0.0193158
inclination: 101.7237°
perigee height: 440 km
apogee height: 709 km
right ascension of ascending node: 315.8462°
argument of perigee: 201.1642°
revolutions per day: 14.97485981
mean anomaly at epoch: 213.8843°
orbit number at epoch: 19053

The dashed part of the orbit path shows where the satellite is in the earth's shadow,  

DLR